Everett, WA
on Wednesday, January 23, 2013

Wednesday
Previous Day Next Day
Daily Summary
 ActualAverageRecord
Temperature
Mean Temperature °F °F  
Max Temperature 44°F 45°F 57°F (2005)
Min Temperature 39°F 35°F 8°F (1949)
Degree Days
Heating Degree Days 24    
Moisture
Dew Point 34°F   
Average Humidity 78    
Maximum Humidity 93    
Minimum Humidity 45    
Precipitation
Precipitation 0.27 in in in ()
Wind
Wind Speed 6 mph   
Max Wind Speed 13 mph   
Max Gust Speed 17 mph   
Visibility 8 miles   
Events Rain   
Averages and records for this station are not official NWS values.
Key: T is trace of precipitation, MM is missing value
Source: NWS Daily Summary
Seasonal Weather Averages
Time(PST)TemperatureDew PointHumidity Pressure Visibility Wind DirectionWind SpeedGust SpeedPrecipitationEvents Conditions
12:53 AM 39.0°F 30.9°F 73% 29.95 in 10.0 miles Calm Calm - N/A   Overcast
1:53 AM 42.1°F 26.1°F 53% 29.92 in 10.0 miles SE 8.1 mph - N/A   Overcast
2:53 AM 39.0°F 28.9°F 67% 29.94 in 10.0 miles SW 10.4 mph - N/A   Mostly Cloudy
3:53 AM 39.9°F 33.1°F 77% 29.93 in 9.0 miles South 3.5 mph - N/A   Overcast
4:53 AM 39.9°F 32.0°F 73% 29.92 in 10.0 miles East 5.8 mph - N/A   Overcast
5:53 AM 41.0°F 30.0°F 65% 29.90 in 10.0 miles ESE 9.2 mph - N/A   Overcast
6:53 AM 42.8°F 24.8°F 49% 29.89 in 10.0 miles SE 5.8 mph - N/A   Overcast
7:53 AM 44.1°F 24.1°F 45% 29.88 in 10.0 miles Variable 3.5 mph - N/A   Overcast
8:53 AM 42.1°F 25.0°F 51% 29.88 in 10.0 miles Calm Calm - N/A   Overcast
9:53 AM 43.0°F 28.0°F 56% 29.89 in 10.0 miles South 4.6 mph - 0.00 in Rain Light Rain
10:53 AM 44.1°F 30.9°F 60% 29.88 in 10.0 miles Variable 4.6 mph - 0.01 in Rain Light Rain
11:53 AM 41.0°F 32.0°F 70% 29.88 in 9.0 miles SSE 12.7 mph 16.1 mph 0.02 in Rain Light Rain
12:53 PM 41.0°F 34.0°F 76% 29.86 in 10.0 miles SSE 5.8 mph - 0.03 in Rain Light Rain
1:53 PM 39.9°F 34.0°F 79% 29.85 in 4.0 miles Variable 5.8 mph - 0.04 in Rain Light Rain
2:53 PM 39.9°F 35.1°F 83% 29.88 in 5.0 miles SSE 10.4 mph 17.3 mph 0.06 in Rain Light Rain
3:53 PM 39.9°F 36.0°F 86% 29.89 in 7.0 miles SSE 12.7 mph - 0.02 in Rain Light Rain
4:08 PM 39.2°F 37.4°F 93% 29.88 in 7.0 miles SSE 11.5 mph - 0.01 in Rain Light Rain
4:53 PM 39.9°F 37.0°F 89% 29.92 in 4.0 miles South 11.5 mph - 0.04 in Rain Light Rain
5:38 PM 39.2°F 37.4°F 93% 29.93 in 7.0 miles SSE 8.1 mph - 0.02 in Rain Light Rain
5:53 PM 39.9°F 37.9°F 93% 29.95 in 7.0 miles South 6.9 mph - 0.02 in Rain Light Rain
6:16 PM 39.2°F 37.4°F 93% 29.95 in 6.0 miles SSW 5.8 mph - 0.01 in Rain Light Rain
6:53 PM 41.0°F 37.9°F 89% 29.96 in 7.0 miles South 8.1 mph - 0.01 in Rain Light Rain
7:53 PM 41.0°F 39.0°F 93% 30.00 in 5.0 miles South 8.1 mph - 0.01 in   Overcast
8:53 PM 41.0°F 39.0°F 93% 30.04 in 4.0 miles South 5.8 mph - 0.00 in Rain Light Rain
9:53 PM 41.0°F 39.0°F 93% 30.08 in 5.0 miles South 9.2 mph - 0.00 in Rain Light Rain
10:31 PM 42.8°F 39.2°F 87% 30.08 in 7.0 miles SSW 6.9 mph - 0.01 in Rain Light Rain
10:39 PM 42.8°F 39.2°F 87% 30.09 in 9.0 miles SSW 5.8 mph - 0.01 in Rain Light Rain
10:53 PM 42.1°F 39.0°F 89% 30.11 in 7.0 miles South 6.9 mph - 0.01 in   Overcast
11:20 PM 42.8°F 39.2°F 87% 30.11 in 10.0 miles SSW 5.8 mph - N/A   Overcast
11:53 PM 41.0°F 39.0°F 93% 30.13 in 10.0 miles SSW 3.5 mph - N/A   Overcast
Moon Phase
Jan. 23 Jan. 26 Feb. 03 Feb. 10 Feb. 17
Sunrise:07:46 AM (PST) Moon Rise:02:07 PM (PST)1/23
Sunset:04:56 PM (PST) Moon Set:05:06 AM (PST)1/23

Copyright © 2014 The Weather Underground, Inc.